Regional Weather Roundup
Issued by NWS

Home | Current Version | Previous Version | Text Only | Print | Product List | Glossary Off
Versions: 1 2 3 4 5 6 7 8 9 10 11 12 13 14 15 16 17 18 19 20 21 22 23 24 25 26 27 28 29 30 31 32 33 34 35 36 37 38 39 40 41 42 43 44 45 46 47 48 49 50

000
ASUS43 KBIS 192120
RWRND

NORTH DAKOTA REGIONAL WEATHER ROUNDUP
NATIONAL WEATHER SERVICE BISMARCK ND
300 PM CST FRI DEC 19 2014

NOTE: "FAIR" INDICATES FEW OR NO CLOUDS BELOW 12,000 FEET WITH NO
SIGNIFICANT WEATHER AND/OR OBSTRUCTIONS TO VISIBILITY.


NDZ001>003-009>011-017-192200-
NORTHWEST NORTH DAKOTA

CITY           SKY/WX    TMP DP  RH WIND       PRES   REMARKS
WILLISTON      CLOUDY    26  24  92 E3        29.90F FOG
MINOT          LGT SNOW  28  26  92 W3        29.92R FOG
MINOT AFB      CLOUDY    27  27 100 NW3       29.91S
$$

NDZ018>021-031>035-040>046-192200-
SOUTHWEST NORTH DAKOTA

CITY           SKY/WX    TMP DP  RH WIND       PRES   REMARKS
BISMARCK       MOSUNNY   38  28  67 CALM      29.92S
DICKINSON      SUNNY     44  28  53 W9        29.86S
GARRISON         N/A     28  26  92 CALM      29.91R
HETTINGER ARPT SUNNY     44  27  51 W8        29.90F
$$

NDZ004>008-012>016-024-026-027-054-192200-
NORTHEAST NORTH DAKOTA

CITY           SKY/WX    TMP DP  RH WIND       PRES   REMARKS
GRAND FORKS    FOG       28  27  96 S9        30.00F VSB 1   WCI  19
GRND FRKS AFB  CLOUDY    28  28 100 S10       30.00S FOG     WCI  19
DEVILS LAKE    CLOUDY    27  19  74 S5        29.93R
$$

NDZ022-023-025-028>030-036>039-047>053-192200-
SOUTHEAST NORTH DAKOTA

CITY           SKY/WX    TMP DP  RH WIND       PRES   REMARKS
FARGO          CLOUDY    32  27  81 SE12      30.02S HAZE
JAMESTOWN      CLOUDY    31  27  85 S7        29.93S
$$




USA.gov is the U.S. government's official web portal to all federal, state and local government web resources and services.